Stündliche Wetter Bolshie Koryaki

Heute, 17 Juni, Donnerstag

Zeit Temperatur Niederschläge Wind Luftdruck Luftfeuchtigkeit
00:00 +13°C° 0 mm 2 m/S 749 mmHg 77%
01:00 +12°C° 0 mm 2 m/S 750 mmHg 78%
02:00 +12°C° 0 mm 2 m/S 750 mmHg 79%
03:00 +12°C° 0 mm 1 m/S 750 mmHg 78%
04:00 +12°C° 0 mm 1 m/S 750 mmHg 77%
05:00 +13°C° 0 mm 1 m/S 751 mmHg 76%
06:00 +15°C° 0 mm 1 m/S 751 mmHg 68%
07:00 +18°C° 0 mm 1 m/S 751 mmHg 60%
08:00 +21°C° 0 mm 1 m/S 751 mmHg 52%
09:00 +22°C° 0 mm 1 m/S 752 mmHg 49%
10:00 +24°C° 0 mm 1 m/S 752 mmHg 45%
11:00 +25°C° 0 mm 1 m/S 752 mmHg 41%
12:00 +26°C° 0 mm 1 m/S 752 mmHg 40%
13:00 +26°C° 0 mm 1 m/S 752 mmHg 39%
14:00 +27°C° 0 mm 1 m/S 752 mmHg 38%
15:00 +27°C° 0 mm 1 m/S 752 mmHg 40%
16:00 +26°C° 0 mm 1 m/S 752 mmHg 42%
17:00 +26°C° 0 mm 1 m/S 752 mmHg 44%
18:00 +24°C° 0 mm 1 m/S 752 mmHg 53%
19:00 +22°C° 0 mm 1 m/S 752 mmHg 63%
20:00 +20°C° 0 mm 1 m/S 752 mmHg 72%
21:00 +19°C° 0 mm 1 m/S 752 mmHg 75%
22:00 +18°C° 0 mm 1 m/S 752 mmHg 78%
23:00 +15°C° 0 mm 0 m/S 752 mmHg 80%

Morgen, 18 Juni, Freitag

Zeit Temperatur Niederschläge Wind Luftdruck Luftfeuchtigkeit
00:00 +15°C° 0 mm 1 m/S 753 mmHg 82%
01:00 +15°C° 0 mm 1 m/S 753 mmHg 84%
02:00 +14°C° 0 mm 1 m/S 753 mmHg 86%
03:00 +15°C° 0 mm 1 m/S 753 mmHg 84%
04:00 +15°C° 0 mm 1 m/S 753 mmHg 83%
05:00 +16°C° 0 mm 1 m/S 753 mmHg 82%
06:00 +19°C° 0 mm 1 m/S 753 mmHg 74%
07:00 +21°C° 0 mm 1 m/S 753 mmHg 66%
08:00 +23°C° 0 mm 1 m/S 753 mmHg 58%
09:00 +24°C° 0 mm 1 m/S 753 mmHg 53%
10:00 +25°C° 0 mm 2 m/S 753 mmHg 48%
11:00 +27°C° 0 mm 2 m/S 753 mmHg 44%
12:00 +27°C° 0 mm 2 m/S 753 mmHg 43%
13:00 +27°C° 0 mm 2 m/S 753 mmHg 42%
14:00 +28°C° 0 mm 3 m/S 753 mmHg 42%
15:00 +27°C° 0 mm 3 m/S 752 mmHg 45%
16:00 +27°C° 0 mm 2 m/S 752 mmHg 48%
17:00 +26°C° 0 mm 2 m/S 752 mmHg 51%
18:00 +24°C° 0 mm 2 m/S 752 mmHg 60%
19:00 +21°C° 0 mm 2 m/S 752 mmHg 70%
20:00 +19°C° 0 mm 2 m/S 752 mmHg 79%
21:00 +18°C° 0 mm 2 m/S 752 mmHg 81%
22:00 +18°C° 0 mm 1 m/S 752 mmHg 83%
23:00 +16°C° 0 mm 1 m/S 752 mmHg 86%

übermorgen, 19 Juni, Samstag

Zeit Temperatur Niederschläge Wind Luftdruck Luftfeuchtigkeit
00:00 +16°C° 0 mm 1 m/S 752 mmHg 88%
01:00 +15°C° 0 mm 1 m/S 752 mmHg 89%
02:00 +15°C° 0 mm 1 m/S 752 mmHg 91%
03:00 +15°C° 0 mm 1 m/S 753 mmHg 90%
04:00 +16°C° 0 mm 1 m/S 753 mmHg 88%
05:00 +16°C° 0 mm 1 m/S 753 mmHg 87%
06:00 +18°C° 0 mm 2 m/S 753 mmHg 79%
07:00 +20°C° 0 mm 2 m/S 753 mmHg 71%
08:00 +23°C° 0 mm 2 m/S 753 mmHg 64%
09:00 +24°C° 0 mm 2 m/S 752 mmHg 59%
10:00 +26°C° 0 mm 2 m/S 752 mmHg 54%
11:00 +27°C° 0 mm 3 m/S 752 mmHg 50%
12:00 +27°C° 0 mm 3 m/S 752 mmHg 48%
13:00 +28°C° 0 mm 3 m/S 751 mmHg 47%
14:00 +28°C° 0 mm 3 m/S 751 mmHg 46%
15:00 +28°C° 0 mm 3 m/S 751 mmHg 49%
16:00 +27°C° 0 mm 3 m/S 751 mmHg 51%
17:00 +27°C° 0 mm 3 m/S 751 mmHg 53%
18:00 +25°C° 0 mm 2 m/S 751 mmHg 63%
19:00 +23°C° 0 mm 2 m/S 750 mmHg 73%
20:00 +20°C° 0 mm 2 m/S 750 mmHg 82%
21:00 +19°C° 0 mm 2 m/S 750 mmHg 86%
22:00 +18°C° 0 mm 2 m/S 750 mmHg 89%
23:00 +17°C° 0 mm 2 m/S 751 mmHg 92%

20 Juni, Sonntag

Zeit Temperatur Niederschläge Wind Luftdruck Luftfeuchtigkeit
00:00 +17°C° 0 mm 2 m/S 751 mmHg 93%
01:00 +16°C° 0 mm 2 m/S 751 mmHg 94%
02:00 +16°C° 0 mm 2 m/S 751 mmHg 95%
03:00 +16°C° 0 mm 2 m/S 751 mmHg 93%
04:00 +18°C° 0 mm 1 m/S 751 mmHg 92%
05:00 +18°C° 0 mm 1 m/S 751 mmHg 90%
06:00 +19°C° 0 mm 2 m/S 751 mmHg 83%
07:00 +21°C° 0 mm 2 m/S 751 mmHg 76%
08:00 +24°C° 0 mm 2 m/S 750 mmHg 69%
09:00 +26°C° 0 mm 3 m/S 750 mmHg 64%
10:00 +27°C° 0 mm 3 m/S 750 mmHg 60%
11:00 +28°C° 0 mm 3 m/S 750 mmHg 55%
12:00 +28°C° 0 mm 3 m/S 750 mmHg 54%
13:00 +29°C° 0 mm 3 m/S 749 mmHg 53%
14:00 +29°C° 0 mm 3 m/S 749 mmHg 52%
15:00 +29°C° 0 mm 3 m/S 749 mmHg 53%
16:00 +29°C° 0 mm 3 m/S 749 mmHg 55%
17:00 +29°C° 0 mm 3 m/S 748 mmHg 57%
18:00 +27°C° 0 mm 2 m/S 749 mmHg 66%
19:00 +25°C° 0 mm 2 m/S 749 mmHg 75%
20:00 +24°C° 0 mm 1 m/S 749 mmHg 84%
21:00 +23°C° 0 mm 2 m/S 749 mmHg 87%
22:00 +21°C° 0 mm 2 m/S 749 mmHg 90%
23:00 +20°C° 0 mm 2 m/S 749 mmHg 92%

21 Juni, Montag

Zeit Temperatur Niederschläge Wind Luftdruck Luftfeuchtigkeit
00:00 +19°C° 0 mm 2 m/S 749 mmHg 94%
01:00 +19°C° 0 mm 2 m/S 749 mmHg 95%
02:00 +19°C° 0 mm 2 m/S 749 mmHg 96%
03:00 +20°C° 0 mm 1 m/S 749 mmHg 94%
04:00 +20°C° 0 mm 1 m/S 749 mmHg 93%
05:00 +20°C° 0 mm 1 m/S 749 mmHg 91%
06:00 +22°C° 0 mm 1 m/S 749 mmHg 83%
07:00 +24°C° 0 mm 2 m/S 749 mmHg 74%
08:00 +26°C° 0 mm 2 m/S 749 mmHg 66%
09:00 +27°C° 0 mm 2 m/S 749 mmHg 59%
10:00 +28°C° 0 mm 2 m/S 749 mmHg 52%
11:00 +30°C° 0 mm 2 m/S 749 mmHg 45%
12:00 +30°C° 0 mm 2 m/S 748 mmHg 43%
13:00 +31°C° 0 mm 2 m/S 748 mmHg 40%
14:00 +31°C° 0 mm 2 m/S 748 mmHg 38%
15:00 +31°C° 0 mm 2 m/S 748 mmHg 41%
16:00 +31°C° 0 mm 2 m/S 748 mmHg 44%
17:00 +31°C° 0 mm 2 m/S 748 mmHg 47%
18:00 +28°C° 0 mm 2 m/S 748 mmHg 57%
19:00 +26°C° 0 mm 2 m/S 748 mmHg 67%
20:00 +24°C° 0 mm 2 m/S 748 mmHg 77%
21:00 +23°C° 0 mm 2 m/S 748 mmHg 79%
22:00 +21°C° 0 mm 2 m/S 748 mmHg 82%
23:00 +20°C° 0 mm 2 m/S 748 mmHg 85%

22 Juni, Dienstag

Zeit Temperatur Niederschläge Wind Luftdruck Luftfeuchtigkeit
00:00 +20°C° 0 mm 2 m/S 748 mmHg 86%
01:00 +19°C° 0 mm 2 m/S 748 mmHg 88%
02:00 +19°C° 0 mm 2 m/S 748 mmHg 89%
03:00 +19°C° 0 mm 2 m/S 748 mmHg 89%
04:00 +19°C° 0 mm 2 m/S 748 mmHg 89%
05:00 +20°C° 0 mm 2 m/S 749 mmHg 89%
06:00 +23°C° 0 mm 2 m/S 749 mmHg 81%
07:00 +25°C° 0 mm 2 m/S 749 mmHg 72%
08:00 +27°C° 0 mm 3 m/S 749 mmHg 64%
09:00 +29°C° 0 mm 3 m/S 749 mmHg 57%
10:00 +30°C° 0 mm 3 m/S 749 mmHg 51%
11:00 +33°C° 0 mm 3 m/S 749 mmHg 44%
12:00 +33°C° 0 mm 3 m/S 749 mmHg 42%
13:00 +34°C° 0 mm 3 m/S 749 mmHg 40%
14:00 +34°C° 0 mm 3 m/S 749 mmHg 38%
15:00 +34°C° 0 mm 3 m/S 748 mmHg 41%
16:00 +33°C° 0 mm 3 m/S 748 mmHg 44%
17:00 +32°C° 0 mm 2 m/S 748 mmHg 48%
18:00 +30°C° 0 mm 2 m/S 748 mmHg 57%
19:00 +28°C° 0 mm 2 m/S 748 mmHg 67%
20:00 +25°C° 0 mm 2 m/S 748 mmHg 76%
21:00 +25°C° 0 mm 2 m/S 748 mmHg 79%
22:00 +24°C° 0 mm 2 m/S 748 mmHg 82%
23:00 +23°C° 0 mm 2 m/S 749 mmHg 84%
Mehr zeigen

Wir brauchen deine Erlaubnis

Meteoprog und unser Service Anbieter werden persönliche Daten aufbewahren, so wie Cookies, Geräte Bezeichnung oder ähnliche Technologien von deinem Gerät und Prozess, so wie Persönliche Daten Inhalte und Werbungen, genauso wie social Media und den Verkehr zu analysieren.

  • Aufbewahrung und/oder Zugang zu deiner Geräte Informationen.

    Cookies, Geräte Bezeichnung oder andere Informationen, können aufbewahrt oder Zugang zu deinem Gerät erhalten, für den Grund, der oben angegeben wird.

  • Personalisierte Werbung und Inhalte, Messungen, Einblick in das Publikum und Produkt Entwicklung.

    Werbungen und Inhalte können personalisiert werden, basierend auf ein Profil. Mehr Daten können besser personalisierte Werbungen und Inhalte hinzufügen. Werbung und Inhalte können gezeigt und gemessen werden. Einblicke über das Publikum, welche die Werbung gesehen haben und den Inhalt, können abgeleitet werden. So wie Daten können genutzt werden, um es zu verbessern oder die Benutzer Erfahrung zu verbessern das System und die Software.

Wenn du “Ich stimme zu” klickst, erlaubst du uns, die Cookies zu benutzen die Geräte Bezeichnung, den Web oder ähnliche Technologien zu benutzen. Deine Settings, können in deinem Gerät bei deinem Browser geändert werden.

Für den bestimmten Zweck, berechtigten Interessen beruhen darauf, mehr als auf den Inhalt. Du kannst mehr darüber in unseren Privaten und Cookie Politik lesen.